• în România
  • Lista ţărilor
  • Pe 7 zile
  • Temperatura apei
  • Hartă satelitară
  • Meteo pe hartă
  • Widget-uri
  • user-avatar
    Intrare

    Meteo pe oră la Makedonovka

    Astăzi, 15 Octombrie, Luni

    Timp Temperatura Precipitaţii Vânt Presiune Umiditate
    00:00 +10°C° 0 mm 1 m/s 746 mmHg 86%
    01:00 +10°C° 0 mm 1 m/s 746 mmHg 86%
    02:00 +10°C° 0 mm 1 m/s 746 mmHg 87%
    03:00 +10°C° 0 mm 1 m/s 746 mmHg 86%
    04:00 +10°C° 0 mm 1 m/s 746 mmHg 86%
    05:00 +10°C° 0 mm 1 m/s 746 mmHg 87%
    06:00 +10°C° 0 mm 1 m/s 745 mmHg 87%
    07:00 +9°C° 0 mm 2 m/s 746 mmHg 85%
    08:00 +10°C° 0 mm 2 m/s 746 mmHg 84%
    09:00 +12°C° 0 mm 2 m/s 746 mmHg 83%
    10:00 +12°C° 0 mm 3 m/s 746 mmHg 80%
    11:00 +13°C° 0 mm 3 m/s 746 mmHg 78%
    12:00 +13°C° 0 mm 3 m/s 746 mmHg 75%
    13:00 +14°C° 0 mm 3 m/s 746 mmHg 75%
    14:00 +14°C° 0 mm 3 m/s 746 mmHg 76%
    15:00 +14°C° 0 mm 3 m/s 746 mmHg 76%
    16:00 +13°C° 0 mm 3 m/s 746 mmHg 79%
    17:00 +13°C° 0 mm 3 m/s 747 mmHg 82%
    18:00 +12°C° 0 mm 3 m/s 747 mmHg 86%
    19:00 +13°C° 0 mm 2 m/s 747 mmHg 87%
    20:00 +13°C° 0 mm 2 m/s 747 mmHg 88%
    21:00 +13°C° 0 mm 2 m/s 747 mmHg 89%
    22:00 +13°C° 0 mm 2 m/s 747 mmHg 89%
    23:00 +12°C° 0 mm 2 m/s 747 mmHg 90%

    Mâine, 16 Octombrie, Marţi

    Timp Temperatura Precipitaţii Vânt Presiune Umiditate
    00:00 +12°C° 0 mm 2 m/s 747 mmHg 90%
    01:00 +12°C° 0 mm 2 m/s 747 mmHg 91%
    02:00 +12°C° 0 mm 2 m/s 747 mmHg 92%
    03:00 +10°C° 0 mm 2 m/s 748 mmHg 92%
    04:00 +10°C° 0 mm 2 m/s 748 mmHg 92%
    05:00 +9°C° 0 mm 2 m/s 748 mmHg 92%
    06:00 +9°C° 0 mm 2 m/s 747 mmHg 92%
    07:00 +10°C° 0 mm 3 m/s 748 mmHg 85%
    08:00 +11°C° 0 mm 3 m/s 748 mmHg 78%
    09:00 +12°C° 0 mm 3 m/s 748 mmHg 71%
    10:00 +14°C° 0 mm 3 m/s 748 mmHg 64%
    11:00 +16°C° 0 mm 3 m/s 748 mmHg 57%
    12:00 +18°C° 0 mm 3 m/s 748 mmHg 50%
    13:00 +18°C° 0 mm 4 m/s 748 mmHg 48%
    14:00 +19°C° 0 mm 4 m/s 748 mmHg 47%
    15:00 +19°C° 0 mm 4 m/s 747 mmHg 45%
    16:00 +17°C° 0 mm 3 m/s 747 mmHg 51%
    17:00 +16°C° 0 mm 3 m/s 747 mmHg 56%
    18:00 +13°C° 0 mm 3 m/s 747 mmHg 62%
    19:00 +13°C° 0 mm 3 m/s 747 mmHg 64%
    20:00 +12°C° 0 mm 3 m/s 747 mmHg 67%
    21:00 +11°C° 0 mm 3 m/s 747 mmHg 70%
    22:00 +11°C° 0 mm 3 m/s 747 mmHg 71%
    23:00 +11°C° 0 mm 3 m/s 746 mmHg 73%

    Poimâine, 17 Octombrie, Miercuri

    Timp Temperatura Precipitaţii Vânt Presiune Umiditate
    00:00 +10°C° 0 mm 3 m/s 746 mmHg 75%
    01:00 +10°C° 0 mm 3 m/s 746 mmHg 77%
    02:00 +9°C° 0 mm 3 m/s 746 mmHg 78%
    03:00 +9°C° 0 mm 3 m/s 746 mmHg 79%
    04:00 +8°C° 0 mm 3 m/s 746 mmHg 78%
    05:00 +7°C° 0 mm 4 m/s 746 mmHg 78%
    06:00 +7°C° 0 mm 4 m/s 745 mmHg 77%
    07:00 +8°C° 0 mm 4 m/s 745 mmHg 70%
    08:00 +10°C° 0 mm 4 m/s 745 mmHg 64%
    09:00 +10°C° 0 mm 5 m/s 745 mmHg 57%
    10:00 +13°C° 0 mm 5 m/s 745 mmHg 52%
    11:00 +14°C° 0 mm 5 m/s 745 mmHg 47%
    12:00 +16°C° 0 mm 5 m/s 745 mmHg 42%
    13:00 +16°C° 0 mm 5 m/s 745 mmHg 42%
    14:00 +16°C° 0 mm 5 m/s 745 mmHg 43%
    15:00 +16°C° 0 mm 5 m/s 745 mmHg 43%
    16:00 +15°C° 0 mm 4 m/s 745 mmHg 50%
    17:00 +13°C° 0 mm 4 m/s 745 mmHg 57%
    18:00 +12°C° 0 mm 3 m/s 746 mmHg 64%
    19:00 +11°C° 0 mm 3 m/s 746 mmHg 70%
    20:00 +10°C° 0 mm 3 m/s 746 mmHg 75%
    21:00 +10°C° 0 mm 3 m/s 747 mmHg 81%
    22:00 +9°C° 0 mm 3 m/s 747 mmHg 83%
    23:00 +8°C° 0 mm 3 m/s 747 mmHg 86%

    18 Octombrie, Joi

    Timp Temperatura Precipitaţii Vânt Presiune Umiditate
    00:00 +8°C° 0 mm 2 m/s 747 mmHg 89%
    01:00 +7°C° 0 mm 2 m/s 747 mmHg 88%
    02:00 +7°C° 0 mm 2 m/s 748 mmHg 88%
    03:00 +6°C° 0 mm 2 m/s 748 mmHg 88%
    04:00 +6°C° 0 mm 2 m/s 748 mmHg 88%
    05:00 +6°C° 0 mm 1 m/s 748 mmHg 87%
    06:00 +6°C° 0 mm 1 m/s 748 mmHg 87%
    07:00 +7°C° 0 mm 1 m/s 748 mmHg 80%
    08:00 +8°C° 0 mm 1 m/s 748 mmHg 74%
    09:00 +9°C° 0 mm 1 m/s 748 mmHg 68%
    10:00 +10°C° 0 mm 1 m/s 748 mmHg 61%
    11:00 +11°C° 0 mm 1 m/s 748 mmHg 55%
    12:00 +12°C° 0 mm 1 m/s 748 mmHg 48%
    13:00 +13°C° 0 mm 1 m/s 748 mmHg 46%
    14:00 +13°C° 0 mm 1 m/s 747 mmHg 44%
    15:00 +13°C° 0 mm 1 m/s 747 mmHg 42%
    16:00 +12°C° 0 mm 1 m/s 747 mmHg 45%
    17:00 +11°C° 0 mm 1 m/s 747 mmHg 49%
    18:00 +11°C° 0 mm 1 m/s 747 mmHg 53%
    19:00 +10°C° 0 mm 1 m/s 747 mmHg 55%
    20:00 +10°C° 0 mm 1 m/s 747 mmHg 57%
    21:00 +10°C° 0 mm 1 m/s 746 mmHg 59%
    22:00 +8°C° 0 mm 2 m/s 746 mmHg 62%
    23:00 +8°C° 0 mm 2 m/s 746 mmHg 65%

    19 Octombrie, Vineri

    Timp Temperatura Precipitaţii Vânt Presiune Umiditate
    00:00 +8°C° 0 mm 2 m/s 746 mmHg 67%
    01:00 +8°C° 0 mm 2 m/s 746 mmHg 71%
    02:00 +7°C° 0 mm 2 m/s 746 mmHg 74%
    03:00 +7°C° 0 mm 2 m/s 746 mmHg 78%
    04:00 +7°C° 0 mm 2 m/s 746 mmHg 80%
    05:00 +7°C° 0 mm 2 m/s 746 mmHg 83%
    06:00 +7°C° 0 mm 2 m/s 745 mmHg 86%
    07:00 +8°C° 0 mm 3 m/s 745 mmHg 82%
    08:00 +9°C° 0 mm 3 m/s 745 mmHg 78%
    09:00 +10°C° 0 mm 3 m/s 746 mmHg 74%
    10:00 +12°C° 0 mm 3 m/s 745 mmHg 68%
    11:00 +13°C° 0 mm 4 m/s 745 mmHg 62%
    12:00 +15°C° 0 mm 4 m/s 745 mmHg 56%
    13:00 +15°C° 0 mm 4 m/s 745 mmHg 55%
    14:00 +15°C° 0 mm 4 m/s 744 mmHg 53%
    15:00 +17°C° 0 mm 4 m/s 744 mmHg 52%
    16:00 +15°C° 0 mm 4 m/s 744 mmHg 57%
    17:00 +13°C° 0 mm 3 m/s 744 mmHg 62%
    18:00 +12°C° 0 mm 3 m/s 744 mmHg 68%
    19:00 +11°C° 0 mm 3 m/s 744 mmHg 69%
    20:00 +11°C° 0 mm 3 m/s 744 mmHg 71%
    21:00 +11°C° 0 mm 3 m/s 744 mmHg 72%
    22:00 +10°C° 0 mm 3 m/s 744 mmHg 73%
    23:00 +10°C° 0 mm 3 m/s 744 mmHg 74%

    20 Octombrie, Sâmbătă

    Timp Temperatura Precipitaţii Vânt Presiune Umiditate
    00:00 +10°C° 0 mm 3 m/s 744 mmHg 75%
    01:00 +10°C° 0 mm 2 m/s 744 mmHg 75%
    02:00 +9°C° 0 mm 2 m/s 744 mmHg 75%
    03:00 +9°C° 0 mm 2 m/s 743 mmHg 76%
    04:00 +9°C° 0 mm 2 m/s 743 mmHg 76%
    05:00 +9°C° 0 mm 2 m/s 743 mmHg 76%
    06:00 +9°C° 0 mm 2 m/s 743 mmHg 77%
    07:00 +10°C° 0 mm 2 m/s 743 mmHg 72%
    08:00 +12°C° 0 mm 2 m/s 743 mmHg 67%
    09:00 +12°C° 0 mm 3 m/s 743 mmHg 62%
    10:00 +13°C° 0 mm 3 m/s 743 mmHg 56%
    11:00 +14°C° 0 mm 3 m/s 743 mmHg 50%
    12:00 +17°C° 0 mm 3 m/s 743 mmHg 44%
    13:00 +17°C° 0 mm 3 m/s 743 mmHg 42%
    14:00 +17°C° 0 mm 3 m/s 742 mmHg 40%
    15:00 +18°C° 0 mm 3 m/s 742 mmHg 38%
    16:00 +16°C° 0 mm 2 m/s 742 mmHg 40%
    17:00 +15°C° 0 mm 2 m/s 742 mmHg 43%
    18:00 +13°C° 0 mm 2 m/s 741 mmHg 45%
    19:00 +13°C° 0 mm 2 m/s 741 mmHg 47%
    20:00 +12°C° 0 mm 2 m/s 741 mmHg 48%
    21:00 +12°C° 0 mm 2 m/s 741 mmHg 49%
    22:00 +10°C° 0 mm 2 m/s 741 mmHg 51%
    23:00 +10°C° 0 mm 2 m/s 741 mmHg 53%
    Arată mai mult